| time (UTC) | temp F | wind direction | speed MPH | gust MPH | rain 1hr in | rain 24hr in | rain mn in | humidity % | barometer mb |
| 20260505032105 | 55 | 255 | 5.0 | 9.0 | 0.00 | 0.00 | 0.00 | 84 | 1005.6 |
| 20260505031606 | 55 | 255 | 4.0 | 12.0 | 0.00 | 0.00 | 0.00 | 84 | 1005.4 |
| 20260505031107 | 55 | 259 | 3.0 | 7.0 | 0.00 | 0.00 | 0.00 | 83 | 1005.4 |
| 20260505030105 | 55 | 242 | 3.0 | 8.0 | 0.00 | 0.00 | 0.00 | 82 | 1005.4 |
| 20260505025605 | 55 | 274 | 3.0 | 8.0 | 0.00 | 0.00 | 0.00 | 82 | 1005.4 |
| 20260505025105 | 55 | 232 | 5.0 | 8.0 | 0.00 | 0.00 | 0.00 | 82 | 1005.4 |
| 20260505024605 | 56 | 245 | 4.0 | 8.0 | 0.00 | 0.00 | 0.00 | 82 | 1005.4 |
| 20260505024106 | 56 | 290 | 3.0 | 7.0 | 0.00 | 0.00 | 0.00 | 82 | 1005.4 |
| 20260505023606 | 56 | 277 | 3.0 | 5.0 | 0.00 | 0.00 | 0.00 | 82 | 1005.4 |
| 20260505023105 | 56 | 240 | 3.0 | 6.0 | 0.00 | 0.00 | 0.00 | 82 | 1005.4 |
| 20260505021605 | 57 | 261 | 3.0 | 5.0 | 0.00 | 0.00 | 0.00 | 80 | 1005.4 |
| 20260505021105 | 57 | 268 | 3.0 | 6.0 | 0.00 | 0.00 | 0.00 | 79 | 1005.4 |
| 20260505020605 | 57 | 266 | 3.0 | 8.0 | 0.00 | 0.00 | 0.00 | 78 | 1005.4 |
| 20260505015105 | 57 | 268 | 2.0 | 7.0 | 0.00 | 0.00 | 0.00 | 77 | 1005.4 |
| 20260505014105 | 58 | 262 | 6.0 | 12.0 | 0.00 | 0.00 | 0.00 | 76 | 1005.4 |
| 20260505013605 | 58 | 282 | 3.0 | 5.0 | 0.00 | 0.00 | 0.00 | 75 | 1005.8 |
| 20260505012105 | 58 | 284 | 3.0 | 9.0 | 0.00 | 0.00 | 0.00 | 70 | 1006.1 |
| 20260505011606 | 59 | 269 | 3.0 | 8.0 | 0.00 | 0.00 | 0.00 | 70 | 1005.9 |
| 20260505011105 | 59 | 269 | 3.0 | 8.0 | 0.00 | 0.00 | 0.00 | 69 | 1006.0 |
| 20260505010605 | 59 | 244 | 3.0 | 7.0 | 0.00 | 0.00 | 0.00 | 68 | 1005.9 |
| 20260505010105 | 59 | 252 | 4.0 | 7.0 | 0.00 | 0.00 | 0.00 | 68 | 1005.8 |
| 20260505005605 | 59 | 267 | 3.0 | 6.0 | 0.00 | 0.00 | 0.00 | 68 | 1005.8 |
| 20260505005105 | 60 | 272 | 4.0 | 8.0 | 0.00 | 0.00 | 0.00 | 67 | 1005.8 |
| 20260505004605 | 60 | 257 | 5.0 | 9.0 | 0.00 | 0.00 | 0.00 | 67 | 1005.8 |
| 20260505004105 | 60 | 286 | 3.0 | 7.0 | 0.00 | 0.00 | 0.00 | 67 | 1005.8 |
| 20260505003605 | 61 | 239 | 4.0 | 10.0 | 0.00 | 0.00 | 0.00 | 66 | 1005.5 |
| 20260505003106 | 61 | 243 | 4.0 | 10.0 | 0.00 | 0.00 | 0.00 | 65 | 1005.4 |
| 20260505002605 | 61 | 258 | 3.0 | 7.0 | 0.00 | 0.00 | 0.00 | 64 | 1005.6 |
| 20260505002105 | 61 | 270 | 5.0 | 10.0 | 0.00 | 0.00 | 0.00 | 64 | 1005.6 |
| 20260505001107 | 61 | 260 | 3.0 | 7.0 | 0.00 | 0.00 | 0.00 | 62 | 1005.8 |
| 20260505000605 | 62 | 254 | 3.0 | 6.0 | 0.00 | 0.00 | 0.00 | 62 | 1005.6 |
| 20260504235606 | 62 | 255 | 3.0 | 8.0 | 0.00 | 0.00 | 0.00 | 62 | 1005.4 |
| 20260504235105 | 62 | 272 | 3.0 | 7.0 | 0.00 | 0.00 | 0.00 | 61 | 1005.4 |
| 20260504234105 | 62 | 277 | 3.0 | 8.0 | 0.00 | 0.00 | 0.00 | 60 | 1005.4 |
| 20260504233607 | 63 | 261 | 3.0 | 7.0 | 0.00 | 0.00 | 0.00 | 60 | 1005.4 |
| 20260504233105 | 63 | 267 | 3.0 | 8.0 | 0.00 | 0.00 | 0.00 | 60 | 1005.4 |
| 20260504232605 | 63 | 241 | 4.0 | 10.0 | 0.00 | 0.00 | 0.00 | 60 | 1005.2 |
| 20260504231605 | 63 | 243 | 4.0 | 8.0 | 0.00 | 0.00 | 0.00 | 60 | 1005.3 |
| 20260504231105 | 63 | 279 | 3.0 | 6.0 | 0.00 | 0.00 | 0.00 | 60 | 1005.1 |
| 20260504230605 | 63 | 287 | 3.0 | 9.0 | 0.00 | 0.00 | 0.00 | 59 | 1005.2 |
| 20260504230106 | 63 | 265 | 4.0 | 6.0 | 0.00 | 0.00 | 0.00 | 59 | 1005.3 |
| 20260504225605 | 63 | 271 | 3.0 | 8.0 | 0.00 | 0.00 | 0.00 | 59 | 1005.4 |
| 20260504223605 | 64 | 245 | 2.0 | 6.0 | 0.00 | 0.00 | 0.00 | 60 | 1005.4 |
| 20260504222605 | 64 | 235 | 2.0 | 5.0 | 0.00 | 0.00 | 0.00 | 61 | 1005.5 |
| 20260504222105 | 64 | 156 | 0.0 | 5.0 | 0.00 | 0.00 | 0.00 | 61 | 1005.8 |
| 20260504221605 | 64 | 237 | 1.0 | 5.0 | 0.00 | 0.00 | 0.00 | 61 | 1005.4 |
| 20260504221105 | 64 | 253 | 2.0 | 5.0 | 0.00 | 0.00 | 0.00 | 61 | 1005.4 |
| 20260504220605 | 64 | 180 | 1.0 | 3.0 | 0.00 | 0.00 | 0.00 | 60 | 1005.8 |
| 20260504215605 | 64 | 257 | 2.0 | 5.0 | 0.00 | 0.00 | 0.00 | 60 | 1005.7 |
| 20260504215105 | 64 | 232 | 3.0 | 5.0 | 0.00 | 0.00 | 0.00 | 59 | 1005.4 |
| 20260504214605 | 64 | 254 | 3.0 | 8.0 | 0.00 | 0.00 | 0.00 | 61 | 1005.8 |
| 20260504214105 | 64 | 256 | 3.0 | 8.0 | 0.00 | 0.00 | 0.00 | 62 | 1005.8 |
| 20260504213606 | 63 | 248 | 3.0 | 7.0 | 0.00 | 0.00 | 0.00 | 62 | 1005.8 |
| 20260504213105 | 63 | 252 | 4.0 | 9.0 | 0.00 | 0.00 | 0.00 | 61 | 1005.8 |
| 20260504212605 | 63 | 275 | 4.0 | 8.0 | 0.00 | 0.00 | 0.00 | 61 | 1005.4 |
| 20260504212105 | 63 | 278 | 3.0 | 7.0 | 0.00 | 0.00 | 0.00 | 60 | 1005.8 |
| 20260504211605 | 63 | 298 | 3.0 | 9.0 | 0.00 | 0.00 | 0.00 | 61 | 1005.7 |
| 20260504210605 | 63 | 258 | 3.0 | 10.0 | 0.00 | 0.00 | 0.00 | 60 | 1005.7 |
| 20260504210105 | 64 | 303 | 3.0 | 6.0 | 0.00 | 0.00 | 0.00 | 60 | 1005.8 |
| 20260504205604 | 64 | 263 | 3.0 | 6.0 | 0.00 | 0.00 | 0.00 | 60 | 1005.8 |
| 20260504205104 | 64 | 270 | 3.0 | 8.0 | 0.00 | 0.00 | 0.00 | 59 | 1005.5 |
| 20260504203605 | 64 | 241 | 4.0 | 8.0 | 0.00 | 0.00 | 0.00 | 59 | 1005.7 |
| 20260504202605 | 64 | 236 | 5.0 | 12.0 | 0.00 | 0.00 | 0.00 | 60 | 1005.6 |
| 20260504201604 | 63 | 241 | 3.0 | 8.0 | 0.00 | 0.00 | 0.00 | 59 | 1005.8 |
| 20260504201105 | 63 | 240 | 4.0 | 7.0 | 0.00 | 0.00 | 0.00 | 59 | 1005.7 |
| 20260504200604 | 63 | 289 | 3.0 | 6.0 | 0.00 | 0.00 | 0.00 | 59 | 1005.8 |
| 20260504200105 | 63 | 238 | 4.0 | 8.0 | 0.00 | 0.00 | 0.00 | 59 | 1005.8 |
| 20260504195104 | 63 | 271 | 2.0 | 6.0 | 0.00 | 0.00 | 0.00 | 58 | 1005.8 |
| 20260504194605 | 63 | 279 | 3.0 | 8.0 | 0.00 | 0.00 | 0.00 | 58 | 1006.0 |
| 20260504193604 | 63 | 272 | 3.0 | 8.0 | 0.00 | 0.00 | 0.00 | 60 | 1005.8 |
| 20260504193105 | 63 | 265 | 3.0 | 7.0 | 0.00 | 0.00 | 0.00 | 61 | 1005.8 |
| 20260504192605 | 62 | 272 | 3.0 | 7.0 | 0.00 | 0.00 | 0.00 | 62 | 1005.8 |
| 20260504192105 | 62 | 242 | 3.0 | 6.0 | 0.00 | 0.00 | 0.00 | 62 | 1005.8 |
| 20260504191105 | 62 | 255 | 3.0 | 6.0 | 0.00 | 0.00 | 0.00 | 61 | 1006.1 |
| 20260504190606 | 62 | 282 | 3.0 | 7.0 | 0.00 | 0.00 | 0.00 | 62 | 1006.1 |
| 20260504190104 | 62 | 273 | 3.0 | 7.0 | 0.00 | 0.00 | 0.00 | 62 | 1006.1 |
| 20260504185605 | 62 | 261 | 2.0 | 6.0 | 0.00 | 0.00 | 0.00 | 63 | 1006.1 |
| 20260504185104 | 61 | 292 | 3.0 | 6.0 | 0.00 | 0.00 | 0.00 | 64 | 1006.1 |
| 20260504184605 | 61 | 330 | 2.0 | 6.0 | 0.00 | 0.00 | 0.00 | 65 | 1006.1 |
| 20260504184106 | 61 | 307 | 2.0 | 6.0 | 0.00 | 0.00 | 0.00 | 66 | 1006.1 |
| 20260504183605 | 61 | 240 | 4.0 | 8.0 | 0.00 | 0.00 | 0.00 | 67 | 1006.1 |
| 20260504182606 | 61 | 299 | 3.0 | 6.0 | 0.00 | 0.00 | 0.00 | 67 | 1006.1 |
| 20260504182105 | 61 | 297 | 2.0 | 7.0 | 0.00 | 0.00 | 0.00 | 67 | 1006.1 |
| 20260504181606 | 61 | 268 | 4.0 | 8.0 | 0.00 | 0.00 | 0.00 | 67 | 1006.1 |
| 20260504180605 | 61 | 287 | 3.0 | 8.0 | 0.00 | 0.00 | 0.00 | 67 | 1006.1 |
| 20260504180104 | 61 | 257 | 3.0 | 6.0 | 0.00 | 0.00 | 0.00 | 67 | 1006.1 |
| 20260504175605 | 61 | 282 | 3.0 | 10.0 | 0.00 | 0.00 | 0.00 | 67 | 1006.1 |
| 20260504175104 | 61 | 264 | 6.0 | 12.0 | 0.00 | 0.00 | 0.00 | 67 | 1006.1 |
| 20260504174604 | 61 | 255 | 5.0 | 8.0 | 0.00 | 0.00 | 0.00 | 67 | 1006.1 |
| 20260504174104 | 61 | 291 | 4.0 | 7.0 | 0.00 | 0.00 | 0.00 | 67 | 1006.0 |
| 20260504173604 | 61 | 273 | 5.0 | 8.0 | 0.00 | 0.00 | 0.00 | 67 | 1006.1 |
| 20260504173105 | 61 | 270 | 3.0 | 7.0 | 0.00 | 0.00 | 0.00 | 67 | 1006.1 |
| 20260504172604 | 62 | 300 | 3.0 | 10.0 | 0.00 | 0.00 | 0.00 | 67 | 1005.8 |
| 20260504172105 | 62 | 281 | 4.0 | 9.0 | 0.00 | 0.00 | 0.00 | 67 | 1005.8 |
| 20260504171605 | 61 | 283 | 4.0 | 10.0 | 0.00 | 0.00 | 0.00 | 68 | 1005.8 |
| 20260504171106 | 61 | 266 | 3.0 | 12.0 | 0.00 | 0.00 | 0.00 | 69 | 1005.8 |
| 20260504170605 | 61 | 258 | 5.0 | 10.0 | 0.00 | 0.00 | 0.00 | 68 | 1005.8 |
| 20260504170104 | 61 | 276 | 5.0 | 9.0 | 0.00 | 0.00 | 0.00 | 67 | 1005.8 |
| 20260504151104 | 58 | 153 | 0.0 | 3.0 | 0.00 | 0.00 | 0.00 | 82 | 1005.8 |
| 20260504150604 | 57 | 154 | 1.0 | 6.0 | 0.00 | 0.00 | 0.00 | 83 | 1005.8 |
| 20260504141104 | 52 | 67 | 1.0 | 2.0 | 0.00 | 0.00 | 0.00 | 90 | 1005.4 |
| 20260504140605 | 52 | 90 | 0.0 | 2.0 | 0.00 | 0.00 | 0.00 | 90 | 1005.4 |
| 20260504140104 | 52 | 90 | 0.0 | 1.0 | 0.00 | 0.00 | 0.00 | 90 | 1005.4 |
| 20260504130605 | 51 | 112 | 0.0 | 0.0 | 0.00 | 0.00 | 0.00 | 91 | 1005.0 |
| 20260504130104 | 51 | 112 | 0.0 | 0.0 | 0.00 | 0.00 | 0.00 | 91 | 1004.7 |
| 20260504120104 | 52 | 157 | 0.0 | 0.0 | 0.00 | 0.00 | 0.00 | 91 | 1005.1 |
| 20260504110604 | 52 | 135 | 0.0 | 0.0 | 0.00 | 0.00 | 0.00 | 90 | 1005.1 |
| 20260504090104 | 52 | 157 | 0.0 | 0.0 | 0.00 | 0.00 | 0.00 | 87 | 1005.1 |
| 20260504081604 | 53 | 157 | 0.0 | 0.0 | 0.00 | 0.00 | 0.00 | 86 | 1005.4 |
| 20260504081104 | 53 | 157 | 0.0 | 0.0 | 0.00 | 0.00 | 0.00 | 86 | 1005.4 |
| 20260504070104 | 53 | 112 | 0.0 | 0.0 | 0.00 | 0.00 | 0.00 | 85 | 1005.4 |
| 20260504060105 | 54 | 191 | 1.0 | 5.0 | 0.00 | 0.00 | 0.00 | 81 | 1005.1 |
| 20260504050605 | 54 | 180 | 0.0 | 3.0 | 0.00 | 0.00 | 0.00 | 81 | 1004.7 |
| 20260504050105 | 54 | 287 | 1.0 | 3.0 | 0.00 | 0.00 | 0.00 | 81 | 1004.7 |
| 20260504045605 | 54 | 102 | 0.0 | 5.0 | 0.00 | 0.00 | 0.00 | 80 | 1004.7 |
| 20260504045107 | 55 | 132 | 0.0 | 3.0 | 0.00 | 0.00 | 0.00 | 80 | 1004.7 |
| 20260504044605 | 55 | 160 | 1.0 | 2.0 | 0.00 | 0.00 | 0.00 | 79 | 1004.7 |
| 20260504043605 | 55 | 98 | 0.0 | 2.0 | 0.00 | 0.00 | 0.00 | 79 | 1004.4 |
| 20260504043106 | 55 | 115 | 0.0 | 3.0 | 0.00 | 0.00 | 0.00 | 78 | 1004.4 |
| 20260504042606 | 55 | 157 | 0.0 | 2.0 | 0.00 | 0.00 | 0.00 | 78 | 1004.4 |
| 20260504042105 | 55 | 102 | 1.0 | 5.0 | 0.00 | 0.00 | 0.00 | 77 | 1004.4 |
| 20260504041606 | 55 | 129 | 0.0 | 3.0 | 0.00 | 0.00 | 0.00 | 77 | 1004.4 |
| 20260504041106 | 55 | 135 | 1.0 | 2.0 | 0.00 | 0.00 | 0.00 | 77 | 1004.1 |
| 20260504040605 | 55 | 138 | 2.0 | 3.0 | 0.00 | 0.00 | 0.00 | 76 | 1004.4 |
| 20260504035105 | 56 | 145 | 2.0 | 5.0 | 0.00 | 0.00 | 0.00 | 75 | 1004.4 |
| 20260504034605 | 56 | 155 | 2.0 | 6.0 | 0.00 | 0.00 | 0.00 | 74 | 1004.4 |
| 20260504034105 | 56 | 123 | 0.0 | 3.0 | 0.00 | 0.00 | 0.00 | 74 | 1004.1 |
| 20260504033605 | 56 | 173 | 1.0 | 3.0 | 0.00 | 0.00 | 0.00 | 74 | 1004.4 |
| 20260504033106 | 56 | 158 | 1.0 | 3.0 | 0.00 | 0.00 | 0.00 | 73 | 1004.1 |
| 20260504032606 | 57 | 165 | 1.0 | 5.0 | 0.00 | 0.00 | 0.00 | 73 | 1004.1 |